Location: Melbourne
(37.8170°S, 144.9670°E)
Time: 08:13:26
(UTC+10:00)

Daily predictions for brighter satellites

Satellite Brightness Start Highest point End
(mag) Time Altitude Azimuth Time Altitude Azimuth Time Altitude Azimuth
Cosmos 1934 Rocket 4.3 18:12:03 10° S 18:17:52 43° ESE 18:23:36 10° NNE
GPS 2-05 Rocket1 3.3 18:15:55 10° W 18:19:31 62° N 18:23:12 10° E
CZ-2C R/B 3.0 18:15:39 10° SSE 18:20:12 37° E 18:24:48 10° NNE
Cosmos 1980 Rocket 2.5 18:15:11 10° S 18:20:39 48° ESE 18:26:04 10° NE
Atlas Centaur 2 3.3 18:18:31 10° WNW 18:25:16 43° N 18:30:40 10° ENE
Cosmos 1486 Rocket 4.0 18:33:20 10° N 18:38:30 69° ENE 18:43:44 10° SSE
MOS 1 4.4 18:34:12 10° SSE 18:39:58 89° W 18:45:39 10° NNW
Abrixas rocket 4.1 18:38:03 10° WSW 18:41:10 31° NW 18:44:13 10° NNE
Helios 1B rocket 3.4 18:38:31 10° N 18:42:33 52° W 18:46:39 10° SSW
Cosmos 1536 4.1 18:39:13 10° SSW 18:43:06 45° W 18:46:56 10° NNW
Cosmos 2082 Rocket 4.0 18:38:11 10° WNW 18:43:12 32° WSW 18:48:16 10° S
CORIOLIS 4.1 18:39:45 10° SSE 18:45:15 70° ENE 18:50:39 10° N
Meteor 2-16 Rocket 4.4 18:40:23 10° S 18:46:36 78° E 18:52:44 10° N
Meteor 1-12 Rocket 4.4 18:41:52 10° S 18:47:28 52° ESE 18:52:59 10° NNE
Cosmos 2322 Rocket 2.8 18:48:18 10° S 18:53:31 35° ESE 18:58:23 11° NE
MONITOR-E 4.2 18:51:38 10° SSE 18:54:56 69° E 18:58:11 10° N
Cosmos 1484 Rocket 3.3 18:52:47 10° SSE 18:56:30 36° E 19:00:07 10° NNE
Cosmos 1455 Rocket 3.0 18:52:14 10° S 18:56:40 89° W 19:01:02 10° N
Cosmos 1812 2.7 18:53:49 10° N 18:57:42 67° E 19:01:39 10° SSE
Cosmos 1375 Rocket 4.5 18:51:58 10° SSW 18:58:24 79° ESE 19:04:52 10° NNE
Cosmos 1763 Rocket 3.6 18:56:10 10° S 19:01:27 57° ESE 19:06:36 10° NNE
SAR-Lupe-4 4.1 19:00:00 10° SSE 19:03:23 36° E 19:06:43 10° NNE
Cosmos 1354 Rocket 4.0 19:00:09 10° N 19:05:24 62° ENE 19:10:42 10° SSE
Cosmos 2360 4.2 19:00:17 10° SSW 19:06:03 83° ESE 19:11:46 10° NNE
Cosmos 1605 Rocket 4.0 19:00:46 10° S 19:07:15 77° E 19:13:40 10° N
YAOGAN 1 3.8 19:04:28 10° S 19:08:40 45° WSW 19:12:49 10° NW
Okean 1-7 Rocket 3.9 19:04:42 10° NNE 19:08:59 44° E 19:13:21 10° SSE
ATLAS 3B R/B 4.3 19:04:44 10° S 19:09:19 18° SE 19:11:35 16° ESE
SWAS 4.4 19:05:14 10° SSW 19:09:35 80° ESE 19:13:53 10° NNE
IDEFIX/ARIANE 42P 2.7 19:05:52 10° S 19:11:11 80° WSW 19:16:23 10° NNW
COS B Rocket 4.5 19:10:25 10° NNW 19:13:16 36° W 19:16:31 10° SSW
Cosmos 1536 Rocket 4.2 19:09:17 10° NNW 19:13:34 57° W 19:17:55 10° S
CZ-3A R/B 4.3 18:50:06 10° WSW 19:14:48 31° SSW 19:20:04 13° SE
Cosmos 2100 Rocket 4.5 19:10:12 10° S 19:16:11 38° ESE 19:22:04 10° NE
NOSS 3-1 (A) 4.0 19:09:13 10° NNW 19:17:34 81° ENE 19:25:16 10° SE
Gbstr 26 Del rocket 4.0 19:14:44 10° WNW 19:18:29 36° SSW 19:20:59 17° SSE
Cosmos 44 Rocket 3.4 19:14:40 10° N 19:19:06 47° ENE 19:21:01 29° ESE
MSX 3.7 19:15:53 10° SSE 19:21:45 80° ENE 19:27:32 10° N
Cosmos 841 Rocket 3.4 19:18:50 10° SSW 19:24:11 81° ESE 19:29:29 10° NNE
Cosmos 2061 Rocket 4.4 19:18:11 10° S 19:24:17 40° ESE 19:28:37 18° NE
Cosmos 1339 Rocket 4.4 19:20:55 10° N 19:27:17 83° E 19:33:39 10° S
SL-8 R/B 3.7 19:24:21 10° WNW 19:29:12 84° SW 19:31:18 34° SE
NOSS 3-1 (C) 4.3 19:21:34 10° NW 19:29:54 72° SW 19:37:34 10° SSE
Cosmos 1975 3.0 19:25:59 10° S 19:30:06 74° W 19:34:12 10° N
Okean 1 4.1 19:29:36 10° NNW 19:33:31 52° W 19:37:29 10° S
ATLAS 2AS CENTAUR R/B 3.0 19:29:34 10° N 19:35:29 35° ENE 19:35:41 35° ENE
Cosmos 540 Rocket 3.9 19:34:00 10° S 19:38:49 41° ESE 19:38:49 41° ESE
SJ-6B 2.6 19:41:30 10° SSE 19:45:31 87° E 19:49:23 10° NNW
Cosmos 1459 Rocket 3.9 19:41:34 10° S 19:47:45 63° E 19:51:04 27° NNE
SL-16 R/B 2.2 19:44:33 10° SSW 19:50:18 85° WNW 19:53:32 27° NNE
Meteor 1-13 Rocket 4.3 19:51:17 10° NNW 19:56:51 74° W 20:02:27 10° S
GPS 2-05 Rocket1 4.3 19:54:06 10° W 19:56:52 36° NW 19:56:52 36° NW
Cosmos 1500 4.1 19:56:01 10° SSW 19:59:46 47° W 20:00:55 35° NW
Meteor 1-19 Rocket 4.1 19:57:15 10° N 20:02:49 89° W 20:08:32 10° S
SEDSat Delta rocket 4.3 19:57:36 10° WNW 20:03:25 41° N 20:03:28 41° N
Cosmos 2360 Rocket 2.8 19:59:30 10° SSW 20:03:45 42° SSE 20:03:45 42° SSE
BREEZE-M DEB (TANK) 4.0 20:07:05 10° WSW 20:08:04 25° WSW 20:08:04 25° WSW
Lacrosse 4 Rocket 3.4 20:07:26 10° SSW 20:08:49 20° SSW 20:08:49 20° SSW
ISS -0.3 20:08:45 10° NW 20:09:10 13° NW 20:09:10 13° NW
OAO 3 Rocket 3.9 20:07:54 10° WNW 20:11:44 46° NW 20:11:44 46° NW
Nimbus 7 Rocket 4.4 20:10:44 43° N 20:12:54 85° WNW 20:18:58 10° SSW
Cosmos 1833 4.1 20:07:11 10° NNW 20:12:59 89° ENE 20:13:33 74° SSE
Atlas Centaur 2 3.4 20:08:44 10° WNW 20:13:50 27° NNW 20:14:12 27° NNW
Centaur D-1AR AC-40 4.3 20:15:29 10° NNW 20:16:03 10° NNW 20:16:03 10° NNW
Centaur D AC-25 4.4 20:12:57 10° W 20:22:34 27° NW 20:24:02 24° N
Cosmos 1802 Rocket 4.0 20:16:45 10° S 20:23:02 79° W 20:24:34 54° N
Cosmos 2098 Rocket 4.3 20:25:06 10° S 20:31:51 76° SE 20:31:51 76° SE
Cosmos 2016 Rocket 4.1 20:29:02 10° S 20:34:40 70° SW 20:34:40 70° SW
Meteor 2-4 Rocket 4.3 20:30:47 10° NNW 20:38:20 44° SSW 20:42:24 10° S
Cosmos 2322 Rocket 3.8 20:32:31 10° SW 20:37:24 30° WNW 20:40:19 19° NNW
USA 184 4.3 20:40:36 10° SSW 20:48:17 65° ESE 21:22:47 10° NE
ATLAS 3B R/B 3.5 20:54:06 10° SSW 20:58:52 45° SSW 20:58:52 45° SSW
ATLAS 2AS CENTAUR R/B 4.2 21:20:09 10° WNW 21:23:13 26° W 21:23:13 26° W
